SCP
0 0 0 0 0 0 -0 0 0 0 -0 -0 -0 -0 -0 -0 -0 -0 -0 -0 0 0 0 0 0 0 0 0 0 0 0 0 0 0 0 0 0 0 0 0 0 0 0 1 2
0 0 0 0 0 0 0 0 -0 0 0 0 0 -0 -0 -0 -0 -0 -0 0 0 0 0 0 0 0 0 0 0 0 0 0 0 0 0 0 0 0 0 0 0 0 0 2 1
-0 -0 -0 -0 -0 0 0 0 0 0 0 0 0 0 -0 -0 -0 0 0 0 0 0 0 0 0 0 0 0 0 0 0 0 0 0 0 0 0 0 0 0 0 0 0 0 1
-0 -0 -0 -0 -0 -0 -0 -0 -0 -0 0 0 0 -0 -0 0 0 0 0 0 0 -0 0 0 0 0 0 0 0 0 0 0 0 0 0 0 0 0 0 0 0 0 0 0 1
-0 -0 -0 -0 -0 -0 -0 -0 0 0 -0 -0 -0 -0 -0 0 0 0 0 0 0 0 0 0 0 0 0 0 0 0 0 0 0 0 0 0 0 0 0 0 0 0 0 0 0
-0 -0 -0 -0 -0 0 0 0 0 0 -0 0 0 0 0 0 0 0 0 0 0 0 0 0 0 0 0 0 0 0 0 0 0 0 0 0 0 0 0 0 0 0 0 0 0
-0 -0 -0 -0 0 0 0 0 0 0 0 0 0 0 0 0 0 0 0 0 0 0 0 0 0 0 0 0 0 0 0 0 0 0 0 0 0 0 0 0 0 0 0 0 0
-0 0 0 0 0 0 0 0 0 0 0 0 0 0 0 0 0 0 0 0 0 0 0 0 0 0 0 0 0 0 0 0 0 0 0 0 0 0 0 0 0 0 0 0 0
0 0 0 0 0 0 0 0 -0 0 0 0 0 0 0 0 0 0 0 0 0 0 0 0 0 0 0 0 0 0 0 0 0 0 0 0 0 0 0 0 0 0 0 0 0
0 0 0 0 0 0 0 -0 -0 0 0 0 0 0 0 0 0 0 0 0 0 0 0 0 0 0 0 0 0 0 0 0 0 0 0 0 0 0 0 0 0 0 0 0 0
0 0 0 0 0 0 0 0 0 0 0 0 0 0 0 0 0 0 0 0 0 0 0 0 0 0 0 0 0 0 0 0 0 0 0 0 0 0 0 0 0 0 0 0 0
0 0 0 0 0 -0 -0 0 0 0 0 0 0 0 0 0 0 0 0 0 0 0 0 0 0 0 0 0 0 0 0 0 0 0 0 0 0 0 0 0 0 0 0 0 0
0 0 0 0 -0 -0 0 0 0 0 0 0 0 0 0 0 0 0 0 0 0 0 0 0 0 0 0 0 0 0 0 0 0 0 0 0 0 0 0 0 0 0 0 0 0
0 0 0 -0 -0 0 0 0 0 0 0 0 0 0 0 0 0 0 0 0 0 0 0 0 0 0 0 0 0 0 0 0 0 0 0 0 0 0 0 0 0 0 0 0 0
0 0 0 0 0 0 0 0 0 0 0 0 0 0 0 0 0 0 0 0 0 0 0 0 0 -0 0 0 0 0 0 0 0 0 0 0 0 0 0 0 0 0 0 0 0
0 0 0 0 0 0 0 0 0 0 0 0 0 0 0 0 0 0 0 0 0 0 0 0 0 0 0 0 0 0 0 0 0 0 0 0 0 0 0 0 0 0 0 0 0
0 0 0 0 0 0 0 0 0 0 0 0 0 0 0 0 0 0 0 0 0 0 0 0 -0 -0 0 0 0 0 0 0 0 0 0 0 0 0 0 0 0 0 0 0 0
0 0 0 0 0 0 0 0 0 0 0 0 0 0 0 0 0 0 0 0 0 0 0 0 -0 0 0 0 0 0 0 0 0 0 0 0 0 0 0 0 0 0 0 0 0
0 0 0 0 0 0 0 0 0 0 0 0 0 0 0 0 0 0 0 0 0 0 0 0 -0 0 0 0 0 0 0 0 0 0 0 0 0 0 0 0 0 0 0 0 0
0 -0 0 0 0 0 -0 0 0 0 0 0 0 0 0 0 0 0 0 0 0 0 0 -0 -0 -0 0 0 0 0 -0 0 0 0 0 0 0 0 0 0 0 0 0 0 1
0 0 0 0 0 -0 0 0 0 0 0 0 0 0 0 0 0 0 0 0 0 0 0 -0 -0 0 0 -0 -0 0 0 0 0 0 0 0 0 0 0 0 0 0 1 1 0
0 0 0 0 -0 0 0 0 0 0 0 0 -0 -0 -0 0 0 0 0 -0 0 0 0 0 -0 0 0 0 0 0 -0 0 0 0 0 0 0 1 0 0 0 1 2 1 2
0 0 0 0 0 0 0 0 0 0 0 0 -0 -0 -0 0 -0 -0 0 0 0 0 0 0 -0 -0 0 0 0 0 0 0 -0 0 0 0 0 0 0 0 1 1 0 0 1
0 0 0 0 0 0 0 0 0 0 0 -0 -0 -0 -0 0 0 0 0 0 0 0 -0 -0 -0 -0 -0 0 0 0 0 0 0 -0 0 0 0 -0 0 0 0 0 0 0 0
0 0 0 0 0 0 0 0 0 0 0 -0 -0 0 -0 -0 -0 0 0 0 0 -0 -0 -0 -0 -0 0 -0 0 0 0 -0 0 0 0 0 0 0 0 0 0 0 1 1 1
0 0 0 0 0 0 0 0 0 -0 -0 -0 0 -0 -0 -0 -0 -0 -0 0 0 0 -0 -0 -0 0 0 0 0 0 0 -0 -0 -0 0 0 -0 0 0 0 0 0 1 1 1
0 0 0 0 0 0 0 -0 0 0 0 -0 -0 -0 -0 -0 -0 -0 -0 -0 -0 -0 0 0 -0 0 0 0 0 -0 0 -0 -0 0 -0 0 0 -0 -0 0 0 0 0 0 0
Wind_Speed_500mb
30 30 31 31 30 31 31 30 30 33 38 43 46 49 49 48 52 49 59 45 30 42 38 18 30 34 39 52 52 35 33 43 59 54 44 42 22 33 36 39 24 25 23 18 23
34 36 38 41 42 43 44 42 39 39 38 40 44 50 54 53 60 64 57 56 57 53 35 42 34 37 51 46 58 40 33 60 47 49 53 39 30 32 22 34 28 31 19 13 22
41 41 42 44 46 48 49 50 52 51 49 50 45 46 48 49 54 10 23 16 25 31 47 37 44 42 52 56 61 53 54 45 52 62 63 33 29 34 34 33 43 42 35 25 27
45 46 47 48 49 49 51 53 53 57 61 62 63 64 50 23 14 18 15 9 12 10 32 45 47 58 46 50 57 57 62 56 65 52 39 34 44 41 38 37 34 31 29 19 22
46 48 48 49 50 50 51 52 53 53 57 59 64 60 33 23 44 41 39 32 19 14 30 44 52 57 56 48 59 58 52 62 60 63 53 39 53 54 51 43 34 27 27 30 26
50 51 52 51 51 50 51 50 52 50 58 60 55 46 24 41 17 22 18 20 26 26 32 38 39 50 50 59 56 53 66 60 66 56 61 48 46 52 56 47 47 48 47 40 39
52 54 56 59 60 60 58 56 55 58 44 40 36 31 32 61 23 16 21 19 25 35 37 34 39 34 40 48 56 60 54 48 44 61 55 51 55 65 64 55 57 56 56 54 49
58 60 63 66 65 64 61 55 56 43 48 39 31 16 25 19 19 31 28 32 28 28 36 36 34 47 50 43 48 30 45 50 57 48 54 49 65 52 65 66 70 65 58 59 58
60 64 68 69 68 67 63 53 39 41 37 22 1 20 26 20 20 21 26 28 33 33 27 24 26 41 41 40 40 51 45 57 53 47 46 46 71 36 71 70 77 70 64 59 56
63 67 70 71 69 65 49 42 34 27 17 4 17 15 33 17 12 16 17 24 22 34 33 34 26 30 38 37 45 49 53 52 50 45 55 53 58 43 28 53 37 53 67 72 67
65 69 69 69 65 53 50 34 14 11 25 30 36 40 20 21 22 24 21 20 25 29 37 38 31 46 53 52 54 49 54 53 47 47 44 56 51 43 46 41 41 47 56 59 71
64 66 68 62 58 38 37 21 15 23 38 58 71 75 61 40 34 38 41 27 41 37 40 37 45 48 48 49 52 54 56 58 39 27 42 44 44 46 49 54 58 50 51 55 57
63 65 66 56 39 30 21 15 16 27 22 41 25 25 22 28 33 35 38 44 38 41 42 46 47 42 46 49 52 53 54 52 55 42 33 27 44 47 50 47 60 64 67 63 56
64 65 66 57 20 30 12 22 18 22 14 28 16 18 18 16 22 30 33 40 34 44 43 41 43 48 47 42 47 51 52 50 49 46 37 52 37 46 47 48 48 57 67 70 70
67 65 61 45 31 20 24 22 21 15 15 13 23 10 7 19 28 34 27 37 40 39 33 44 42 47 51 53 46 51 43 42 47 46 44 50 32 38 42 52 56 54 68 68 69
67 68 58 25 24 21 27 25 19 15 24 6 8 7 18 31 30 37 40 48 48 44 47 57 62 51 36 51 48 36 44 42 42 38 40 51 43 41 41 46 41 41 71 69 69
69 64 47 20 22 28 24 24 16 20 22 8 18 26 37 42 49 50 48 44 41 42 43 48 56 60 33 36 49 44 31 23 27 32 38 52 50 42 31 38 42 45 51 55 67
72 51 31 9 20 26 23 23 27 30 39 48 35 42 47 53 52 25 16 33 37 45 37 43 49 41 28 51 37 56 48 24 28 32 38 52 46 51 57 14 14 16 41 55 54
76 35 17 13 22 26 32 20 30 41 42 40 41 48 45 40 19 33 37 41 40 30 15 16 44 32 39 38 62 44 36 57 51 10 18 35 43 37 27 26 31 24 27 21 29
62 37 19 11 33 25 24 28 37 43 54 48 56 50 57 52 39 31 24 27 34 19 9 10 21 23 8 17 58 34 45 41 30 18 24 29 48 32 39 30 27 41 39 18 14
39 27 5 23 32 32 16 31 50 51 52 47 51 58 56 54 53 51 51 36 22 7 8 5 15 19 13 32 44 29 19 26 28 35 25 25 20 15 31 33 40 29 30 24 26
24 14 27 34 32 20 18 35 46 43 45 39 40 31 26 43 41 44 42 31 33 22 18 8 8 9 27 50 40 51 45 46 22 21 31 29 10 26 21 19 25 28 24 24 20
33 39 12 24 14 22 33 36 34 29 30 25 29 33 31 14 12 22 15 4 20 28 6 8 2 9 18 20 15 19 35 44 52 29 33 29 14 7 14 15 8 27 24 24 32
24 13 36 28 24 33 32 32 33 24 29 42 42 26 18 28 29 19 34 13 21 44 18 4 6 17 22 31 17 21 36 45 47 26 27 27 15 30 21 24 19 23 19 36 49
19 13 23 16 28 29 31 31 36 33 40 43 28 31 33 16 40 28 35 30 31 6 9 4 12 28 40 49 41 43 48 49 44 40 33 36 27 21 12 26 27 33 24 46 39
22 33 27 47 32 36 29 23 35 43 42 34 24 46 40 36 32 44 40 33 24 27 4 2 10 29 45 42 38 40 38 49 48 41 39 42 12 13 5 33 34 39 32 51 52
20 20 30 26 26 24 23 38 35 40 26 52 41 42 41 42 46 61 62 59 47 40 35 18 8 7 16 17 20 19 49 51 50 41 50 35 17 39 34 35 35 45 47 53 53
Wind_Direction_500mb
359 354 351 348 343 337 336 331 324 319 317 315 314 313 312 309 304 298 274 256 253 247 236 220 235 224 224 230 226 230 250 240 243 248 245 259 191 231 243 246 207 207 249 98 148
360 357 354 348 345 344 340 335 331 327 321 315 313 314 314 319 314 296 283 263 249 245 239 226 227 221 218 227 224 222 232 241 246 253 258 248 191 229 209 226 205 204 199 173 172
360 354 349 344 342 339 335 331 329 327 322 318 312 309 311 319 312 263 285 220 230 238 227 225 230 223 231 225 223 220 239 250 242 255 261 279 244 232 201 224 218 201 196 178 192
354 349 344 339 335 332 327 324 322 320 318 315 314 314 319 314 285 278 294 209 191 237 218 215 225 237 232 233 227 232 240 243 259 258 241 264 260 223 228 244 211 211 176 193 198
350 344 338 334 329 326 322 318 316 311 308 306 308 313 327 264 259 273 275 255 245 202 209 211 220 224 237 239 245 237 248 247 251 252 256 238 247 252 238 237 241 231 198 212 216
348 341 336 333 329 325 321 316 311 305 300 297 297 298 288 267 251 234 267 233 226 222 221 225 227 229 241 236 249 246 238 248 248 244 243 243 241 247 243 243 238 235 225 228 229
345 341 338 335 333 331 328 324 315 311 305 292 289 286 267 252 274 247 259 247 242 229 230 228 234 236 241 253 247 259 259 249 241 244 244 242 248 240 241 234 239 236 234 239 236
347 343 340 339 337 332 329 323 315 310 306 298 290 224 251 262 255 238 244 243 239 229 236 239 242 247 247 255 245 245 255 247 243 231 239 237 251 238 235 237 235 233 232 233 229
347 343 341 341 337 335 332 325 319 311 301 297 23 211 269 261 254 249 226 228 233 232 233 229 238 243 236 239 244 238 242 234 246 237 218 215 245 248 253 239 228 230 233 232 223
347 342 341 341 337 337 339 332 325 314 338 266 254 225 241 257 223 214 221 217 220 217 221 225 230 228 228 229 230 235 234 240 256 233 233 219 234 245 259 244 222 223 227 231 226
346 343 343 342 338 338 340 356 313 239 225 242 265 240 257 265 254 236 222 217 222 216 215 202 219 227 226 221 247 250 267 253 237 229 251 227 238 237 229 228 230 220 228 227 226
346 342 340 342 339 343 1 346 336 309 293 271 261 261 264 259 260 256 226 216 217 227 220 238 229 244 245 240 237 241 254 261 259 257 242 239 245 236 232 218 218 214 219 222 223
345 341 339 343 341 358 331 326 324 324 273 298 238 254 245 210 236 252 205 218 245 227 241 247 246 231 232 251 244 242 242 246 256 248 228 258 257 247 240 241 231 227 222 226 227
344 339 337 341 333 321 313 324 317 321 278 265 185 202 183 218 229 221 208 225 232 244 254 265 261 249 261 238 243 243 239 243 254 248 237 206 248 240 232 233 229 227 228 222 224
345 339 337 338 331 338 311 321 305 300 284 120 125 133 214 246 328 247 209 228 249 269 236 255 253 248 246 238 234 245 243 244 237 252 257 250 252 252 239 226 219 222 221 223 221
343 336 333 337 327 311 316 314 311 245 264 71 22 271 260 264 273 288 256 223 247 267 270 270 269 267 251 280 245 232 238 241 239 230 235 238 241 244 239 228 230 217 215 217 218
342 335 328 346 319 319 318 306 265 246 330 24 327 311 295 293 291 285 276 264 245 239 251 262 257 250 245 230 258 209 211 228 226 222 234 228 228 238 261 226 224 215 210 213 213
342 335 327 320 329 322 318 273 268 280 306 338 342 315 293 287 280 290 266 262 264 275 278 262 261 236 243 250 238 211 210 212 209 220 227 223 227 227 232 207 303 254 210 216 213
342 339 307 281 325 319 291 269 301 328 336 323 304 295 286 299 285 290 283 288 284 317 276 272 254 226 231 230 227 214 206 217 237 263 296 224 208 236 215 209 205 214 216 206 222
343 327 271 303 321 298 264 273 323 340 334 323 304 299 292 287 295 289 275 286 293 288 345 309 287 236 290 303 272 188 231 215 239 222 229 230 202 208 193 195 212 209 214 169 219
340 318 43 325 312 268 282 332 334 325 311 300 301 293 285 287 287 277 279 287 305 306 293 150 263 294 220 195 216 193 198 253 242 245 251 254 221 343 164 195 186 205 135 145 192
323 303 329 336 296 358 326 334 314 322 325 321 313 290 294 300 291 293 274 262 9 341 312 87 275 285 297 288 315 211 222 186 236 224 240 267 14 339 69 110 94 85 106 124 142
315 304 313 327 332 333 328 326 334 332 335 331 315 324 314 280 266 247 247 340 333 285 5 5 281 302 308 225 265 262 232 240 215 229 228 242 172 337 106 108 91 119 121 147 154
308 311 336 312 344 341 332 322 318 343 344 329 310 320 347 316 315 297 299 5 341 290 97 330 257 255 275 294 335 249 232 221 235 218 225 241 189 169 154 136 135 127 152 161 148
321 335 331 301 329 310 302 310 316 337 328 329 309 326 336 306 317 306 330 295 308 93 92 51 261 267 279 282 270 246 255 212 228 222 230 245 296 170 113 140 134 140 155 144 132
327 339 323 301 304 292 299 341 339 326 334 311 325 314 314 303 296 300 308 307 296 288 282 202 274 306 295 283 254 250 253 204 218 227 227 245 206 331 254 135 128 128 134 122 122
324 313 304 289 297 312 334 330 332 332 304 311 311 307 300 304 309 298 289 279 268 274 280 281 279 304 278 216 215 249 234 197 204 208 225 233 132 169 153 139 137 131 128 124 122
Wind_Speed_850mb
30 30 31 31 30 31 31 30 30 33 38 43 46 49 49 48 52 49 59 45 30 42 38 18 30 34 39 52 52 35 33 43 59 54 44 42 22 33 36 39 24 25 23 18 23
34 36 38 41 42 43 44 42 39 39 38 40 44 50 54 53 60 64 57 56 57 53 35 42 34 37 51 46 58 40 33 60 47 49 53 39 30 32 22 34 28 31 19 13 22
41 41 42 44 46 48 49 50 52 51 49 50 45 46 48 49 54 10 23 16 25 31 47 37 44 42 52 56 61 53 54 45 52 62 63 33 29 34 34 33 43 42 35 25 27
45 46 47 48 49 49 51 53 53 57 61 62 63 64 50 23 14 18 15 9 12 10 32 45 47 58 46 50 57 57 62 56 65 52 39 34 44 41 38 37 34 31 29 19 22
46 48 48 49 50 50 51 52 53 53 57 59 64 60 33 23 44 41 39 32 19 14 30 44 52 57 56 48 59 58 52 62 60 63 53 39 53 54 51 43 34 27 27 30 26
50 51 52 51 51 50 51 50 52 50 58 60 55 46 24 41 17 22 18 20 26 26 32 38 39 50 50 59 56 53 66 60 66 56 61 48 46 52 56 47 47 48 47 40 39
52 54 56 59 60 60 58 56 55 58 44 40 36 31 32 61 23 16 21 19 25 35 37 34 39 34 40 48 56 60 54 48 44 61 55 51 55 65 64 55 57 56 56 54 49
58 60 63 66 65 64 61 55 56 43 48 39 31 16 25 19 19 31 28 32 28 28 36 36 34 47 50 43 48 30 45 50 57 48 54 49 65 52 65 66 70 65 58 59 58
60 64 68 69 68 67 63 53 39 41 37 22 1 20 26 20 20 21 26 28 33 33 27 24 26 41 41 40 40 51 45 57 53 47 46 46 71 36 71 70 77 70 64 59 56
63 67 70 71 69 65 49 42 34 27 17 4 17 15 33 17 12 16 17 24 22 34 33 34 26 30 38 37 45 49 53 52 50 45 55 53 58 43 28 53 37 53 67 72 67
65 69 69 69 65 53 50 34 14 11 25 30 36 40 20 21 22 24 21 20 25 29 37 38 31 46 53 52 54 49 54 53 47 47 44 56 51 43 46 41 41 47 56 59 71
64 66 68 62 58 38 37 21 15 23 38 58 71 75 61 40 34 38 41 27 41 37 40 37 45 48 48 49 52 54 56 58 39 27 42 44 44 46 49 54 58 50 51 55 57
63 65 66 56 39 30 21 15 16 27 22 41 25 25 22 28 33 35 38 44 38 41 42 46 47 42 46 49 52 53 54 52 55 42 33 27 44 47 50 47 60 64 67 63 56
64 65 66 57 20 30 12 22 18 22 14 28 16 18 18 16 22 30 33 40 34 44 43 41 43 48 47 42 47 51 52 50 49 46 37 52 37 46 47 48 48 57 67 70 70
67 65 61 45 31 20 24 22 21 15 15 13 23 10 7 19 28 34 27 37 40 39 33 44 42 47 51 53 46 51 43 42 47 46 44 50 32 38 42 52 56 54 68 68 69
67 68 58 25 24 21 27 25 19 15 24 6 8 7 18 31 30 37 40 48 48 44 47 57 62 51 36 51 48 36 44 42 42 38 40 51 43 41 41 46 41 41 71 69 69
69 64 47 20 22 28 24 24 16 20 22 8 18 26 37 42 49 50 48 44 41 42 43 48 56 60 33 36 49 44 31 23 27 32 38 52 50 42 31 38 42 45 51 55 67
72 51 31 9 20 26 23 23 27 30 39 48 35 42 47 53 52 25 16 33 37 45 37 43 49 41 28 51 37 56 48 24 28 32 38 52 46 51 57 14 14 16 41 55 54
76 35 17 13 22 26 32 20 30 41 42 40 41 48 45 40 19 33 37 41 40 30 15 16 44 32 39 38 62 44 36 57 51 10 18 35 43 37 27 26 31 24 27 21 29
62 37 19 11 33 25 24 28 37 43 54 48 56 50 57 52 39 31 24 27 34 19 9 10 21 23 8 17 58 34 45 41 30 18 24 29 48 32 39 30 27 41 39 18 14
39 27 5 23 32 32 16 31 50 51 52 47 51 58 56 54 53 51 51 36 22 7 8 5 15 19 13 32 44 29 19 26 28 35 25 25 20 15 31 33 40 29 30 24 26
24 14 27 34 32 20 18 35 46 43 45 39 40 31 26 43 41 44 42 31 33 22 18 8 8 9 27 50 40 51 45 46 22 21 31 29 10 26 21 19 25 28 24 24 20
33 39 12 24 14 22 33 36 34 29 30 25 29 33 31 14 12 22 15 4 20 28 6 8 2 9 18 20 15 19 35 44 52 29 33 29 14 7 14 15 8 27 24 24 32
24 13 36 28 24 33 32 32 33 24 29 42 42 26 18 28 29 19 34 13 21 44 18 4 6 17 22 31 17 21 36 45 47 26 27 27 15 30 21 24 19 23 19 36 49
19 13 23 16 28 29 31 31 36 33 40 43 28 31 33 16 40 28 35 30 31 6 9 4 12 28 40 49 41 43 48 49 44 40 33 36 27 21 12 26 27 33 24 46 39
22 33 27 47 32 36 29 23 35 43 42 34 24 46 40 36 32 44 40 33 24 27 4 2 10 29 45 42 38 40 38 49 48 41 39 42 12 13 5 33 34 39 32 51 52
20 20 30 26 26 24 23 38 35 40 26 52 41 42 41 42 46 61 62 59 47 40 35 18 8 7 16 17 20 19 49 51 50 41 50 35 17 39 34 35 35 45 47 53 53
Wind_Direction_850mb
359 354 351 348 343 337 336 331 324 319 317 315 314 313 312 309 304 298 274 256 253 247 236 220 235 224 224 230 226 230 250 240 243 248 245 259 191 231 243 246 207 207 249 98 148
360 357 354 348 345 344 340 335 331 327 321 315 313 314 314 319 314 296 283 263 249 245 239 226 227 221 218 227 224 222 232 241 246 253 258 248 191 229 209 226 205 204 199 173 172
360 354 349 344 342 339 335 331 329 327 322 318 312 309 311 319 312 263 285 220 230 238 227 225 230 223 231 225 223 220 239 250 242 255 261 279 244 232 201 224 218 201 196 178 192
354 349 344 339 335 332 327 324 322 320 318 315 314 314 319 314 285 278 294 209 191 237 218 215 225 237 232 233 227 232 240 243 259 258 241 264 260 223 228 244 211 211 176 193 198
350 344 338 334 329 326 322 318 316 311 308 306 308 313 327 264 259 273 275 255 245 202 209 211 220 224 237 239 245 237 248 247 251 252 256 238 247 252 238 237 241 231 198 212 216
348 341 336 333 329 325 321 316 311 305 300 297 297 298 288 267 251 234 267 233 226 222 221 225 227 229 241 236 249 246 238 248 248 244 243 243 241 247 243 243 238 235 225 228 229
345 341 338 335 333 331 328 324 315 311 305 292 289 286 267 252 274 247 259 247 242 229 230 228 234 236 241 253 247 259 259 249 241 244 244 242 248 240 241 234 239 236 234 239 236
347 343 340 339 337 332 329 323 315 310 306 298 290 224 251 262 255 238 244 243 239 229 236 239 242 247 247 255 245 245 255 247 243 231 239 237 251 238 235 237 235 233 232 233 229
347 343 341 341 337 335 332 325 319 311 301 297 23 211 269 261 254 249 226 228 233 232 233 229 238 243 236 239 244 238 242 234 246 237 218 215 245 248 253 239 228 230 233 232 223
347 342 341 341 337 337 339 332 325 314 338 266 254 225 241 257 223 214 221 217 220 217 221 225 230 228 228 229 230 235 234 240 256 233 233 219 234 245 259 244 222 223 227 231 226
346 343 343 342 338 338 340 356 313 239 225 242 265 240 257 265 254 236 222 217 222 216 215 202 219 227 226 221 247 250 267 253 237 229 251 227 238 237 229 228 230 220 228 227 226
346 342 340 342 339 343 1 346 336 309 293 271 261 261 264 259 260 256 226 216 217 227 220 238 229 244 245 240 237 241 254 261 259 257 242 239 245 236 232 218 218 214 219 222 223
345 341 339 343 341 358 331 326 324 324 273 298 238 254 245 210 236 252 205 218 245 227 241 247 246 231 232 251 244 242 242 246 256 248 228 258 257 247 240 241 231 227 222 226 227
344 339 337 341 333 321 313 324 317 321 278 265 185 202 183 218 229 221 208 225 232 244 254 265 261 249 261 238 243 243 239 243 254 248 237 206 248 240 232 233 229 227 228 222 224
345 339 337 338 331 338 311 321 305 300 284 120 125 133 214 246 328 247 209 228 249 269 236 255 253 248 246 238 234 245 243 244 237 252 257 250 252 252 239 226 219 222 221 223 221
343 336 333 337 327 311 316 314 311 245 264 71 22 271 260 264 273 288 256 223 247 267 270 270 269 267 251 280 245 232 238 241 239 230 235 238 241 244 239 228 230 217 215 217 218
342 335 328 346 319 319 318 306 265 246 330 24 327 311 295 293 291 285 276 264 245 239 251 262 257 250 245 230 258 209 211 228 226 222 234 228 228 238 261 226 224 215 210 213 213
342 335 327 320 329 322 318 273 268 280 306 338 342 315 293 287 280 290 266 262 264 275 278 262 261 236 243 250 238 211 210 212 209 220 227 223 227 227 232 207 303 254 210 216 213
342 339 307 281 325 319 291 269 301 328 336 323 304 295 286 299 285 290 283 288 284 317 276 272 254 226 231 230 227 214 206 217 237 263 296 224 208 236 215 209 205 214 216 206 222
343 327 271 303 321 298 264 273 323 340 334 323 304 299 292 287 295 289 275 286 293 288 345 309 287 236 290 303 272 188 231 215 239 222 229 230 202 208 193 195 212 209 214 169 219
340 318 43 325 312 268 282 332 334 325 311 300 301 293 285 287 287 277 279 287 305 306 293 150 263 294 220 195 216 193 198 253 242 245 251 254 221 343 164 195 186 205 135 145 192
323 303 329 336 296 358 326 334 314 322 325 321 313 290 294 300 291 293 274 262 9 341 312 87 275 285 297 288 315 211 222 186 236 224 240 267 14 339 69 110 94 85 106 124 142
315 304 313 327 332 333 328 326 334 332 335 331 315 324 314 280 266 247 247 340 333 285 5 5 281 302 308 225 265 262 232 240 215 229 228 242 172 337 106 108 91 119 121 147 154
308 311 336 312 344 341 332 322 318 343 344 329 310 320 347 316 315 297 299 5 341 290 97 330 257 255 275 294 335 249 232 221 235 218 225 241 189 169 154 136 135 127 152 161 148
321 335 331 301 329 310 302 310 316 337 328 329 309 326 336 306 317 306 330 295 308 93 92 51 261 267 279 282 270 246 255 212 228 222 230 245 296 170 113 140 134 140 155 144 132
327 339 323 301 304 292 299 341 339 326 334 311 325 314 314 303 296 300 308 307 296 288 282 202 274 306 295 283 254 250 253 204 218 227 227 245 206 331 254 135 128 128 134 122 122
324 313 304 289 297 312 334 330 332 332 304 311 311 307 300 304 309 298 289 279 268 274 280 281 279 304 278 216 215 249 234 197 204 208 225 233 132 169 153 139 137 131 128 124 122